Location: Innenheim
(48.4962°N, 7.5734°E)
Time: 22:31:54
(UTC+00:00)

Daily predictions for brighter satellites

Satellite Brightness Start Highest point End
(mag) Time Altitude Azimuth Time Altitude Azimuth Time Altitude Azimuth
COSMO-SKYMED 1 2.6 17:45:18 10° NNE 17:49:42 87° ESE 17:54:03 10° SSW
Nadezhda 4 Rocket 4.5 17:46:37 10° N 17:52:18 38° ENE 17:57:57 10° SE
Cosmos 1689 Rocket 3.0 17:50:35 10° N 17:53:31 53° WNW 17:56:25 10° SSW
Ariane Rocket 4.3 17:49:48 10° ESE 17:53:40 22° ENE 17:57:32 10° N
H-2A R/B 2.4 17:49:38 10° SE 17:54:21 43° ENE 17:59:13 10° N
SJ 16-02 3.8 17:52:00 10° WSW 17:55:38 25° WNW 17:59:18 10° N
Cosmos 2263 Rocket 3.1 17:53:27 10° SW 17:58:54 54° WNW 18:04:24 10° NNE
USA 116 4.1 17:56:23 10° NNE 17:59:54 41° E 18:03:48 10° S
COSMOS 2406 4.5 17:56:35 10° N 18:01:11 24° NE 18:05:46 10° E
Cosmos 1939 Rocket 3.8 17:58:14 10° S 18:02:18 55° W 18:06:24 10° NNW
Cosmos 1844 Rocket 3.0 17:58:11 10° S 18:03:23 43° ESE 18:08:39 10° NE
Cosmos 1707 2.6 18:00:57 10° N 18:04:48 77° ENE 18:08:38 10° SSE
Cosmos 372 Rocket 4.0 18:00:01 10° SSW 18:05:14 76° ESE 18:10:27 10° NNE
Cosmos 1626 4.1 18:04:19 10° NE 18:06:02 13° ENE 18:07:28 11° E
NOSS 3-2 (C) 4.1 17:59:04 10° NW 18:06:26 70° NE 18:14:49 10° SE
Cosmos 1844 4.1 18:05:35 10° S 18:10:50 40° ESE 18:16:05 10° NE
Cosmos 2034 Rocket 4.3 18:05:18 10° SSE 18:11:19 46° E 18:17:18 10° NNE
ISS -3.5 18:08:04 10° WSW 18:11:27 70° NNW 18:14:49 10° ENE
NOSS 3-4 (A) 4.3 18:07:39 10° SSE 18:12:19 25° ESE 18:17:10 10° ENE
NOSS 3-4 (C) 4.3 18:07:47 10° SSE 18:12:25 24° ESE 18:17:16 10° ENE
USA 186 3.2 18:11:03 11° ESE 18:13:22 22° ENE 18:15:58 10° NNE
Lacrosse 4 Rocket 3.5 18:12:30 10° N 18:14:13 12° NNE 18:15:56 10° ENE
Meteor 1-12 Rocket 4.3 18:08:49 10° S 18:14:38 68° E 18:20:22 10° NNE
Cosmos 1300 Rocket 3.5 18:15:32 10° S 18:19:55 71° E 18:24:22 10° NNE
Okean 1 Rocket 4.0 18:19:26 10° SSE 18:23:15 28° E 18:27:05 10° NNE
Sich 1 Rocket 4.0 18:19:47 10° SSW 18:24:17 69° W 18:28:52 10° N
NOSS 2-2 (E) 4.5 18:22:00 10° WSW 18:25:24 41° NW 18:29:25 10° NNE
CENTAUR R/B 3.2 18:17:31 10° NW 18:25:31 81° NE 18:34:21 10° SE
Cosmos 2298 Rocket 4.0 18:21:11 10° SSW 18:26:30 79° ESE 18:31:51 10° NNE
Cosmos 1833 Rocket 3.8 18:21:59 10° NNW 18:26:46 27° NE 18:30:11 16° E
Resurs 01 Rocket 3.5 18:25:52 13° ENE 18:27:03 14° ENE 18:29:17 10° NNE
CSL-04 Debris 4.3 18:25:04 10° SSE 18:30:27 79° WSW 18:35:53 10° NNW
CSL-04 Rocket 3.8 18:26:57 10° SSE 18:32:24 80° WSW 18:37:58 10° NNW
Cosmos 1025 Rocket 3.2 18:29:49 10° NNW 18:34:13 76° W 18:38:36 10° S
Cosmos 1766 4.1 18:30:52 10° SSE 18:34:13 28° E 18:37:38 10° NNE
Okean 2 Rocket 3.2 18:30:00 10° SSW 18:34:29 82° WNW 18:38:58 10° N
ATLAS 2AS CENTAUR R/B 3.4 18:27:34 10° S 18:34:42 39° ESE 18:41:51 10° NE
YAOGAN 1 3.7 18:30:55 10° S 18:35:05 47° W 18:39:18 10° NNW
NOSS 2-2 (D) 4.4 18:31:52 10° WSW 18:35:15 41° NW 18:39:11 10° NNE
ATLAS 3B R/B 3.3 18:31:17 10° NW 18:37:46 44° NE 18:42:35 19° E
Abrixas rocket 2.4 18:38:18 10° W 18:41:03 49° SSW 18:42:11 28° SE
CREW DRAGON DEMO-1 DEB 3.1 18:39:56 10° WNW 18:42:56 60° SSW 18:44:16 28° SE
Cosmos 1536 Rocket 3.7 18:39:31 10° NNW 18:44:00 81° W 18:48:28 10° S
Cosmos 1125 Rocket 3.4 18:41:51 10° SSW 18:47:09 74° ESE 18:52:28 10° NNE
SJ-6B 3.0 18:48:31 25° SE 18:50:18 46° ENE 18:53:57 10° N
CZ-4 R/B 3.8 18:49:17 10° SSW 18:52:50 26° W 18:56:22 10° NW
Cosmos 2150 Rocket 4.4 18:48:44 10° SSW 18:54:08 70° WNW 18:59:37 10° NNE
USA 238 DEB 4.5 18:47:40 10° NW 18:54:42 56° WSW 19:01:58 10° SSE
USA 238 4.5 18:47:47 10° NW 18:54:48 56° WSW 19:02:05 10° SSE
CZ-2C R/B 4.2 18:49:38 10° S 18:54:51 49° W 19:00:21 10° NNW
Cosmos 1464 Rocket 4.4 18:49:21 10° SSW 18:55:27 66° WNW 19:01:39 10° N
Cosmos 1674 2.7 18:52:31 10° N 18:56:24 84° W 19:00:14 10° S
Cosmos 2026 Rocket 4.1 18:50:52 10° N 18:57:08 55° ENE 19:02:16 16° SSE
Cosmos 1092 Rocket 3.9 18:51:11 10° N 18:57:23 70° E 19:03:34 10° SSE
Cosmos 2285 Rocket 3.9 18:51:36 10° SSW 18:57:52 72° ESE 19:04:13 10° NNE
MOS 1 Rocket 3.3 18:58:19 10° N 19:02:42 72° WNW 19:06:57 10° SSW
FREGAT/IRIS 2.9 19:04:41 43° NNE 19:04:41 43° NNE 19:06:39 10° N
TSX-5 4.0 19:05:12 10° SSW 19:09:00 57° ESE 19:13:53 10° NE
ARGOS 3.7 19:05:05 10° S 19:10:22 60° W 19:15:43 10° NNW
CZ-2C R/B 2.7 19:07:24 10° NNE 19:12:57 67° ESE 19:18:33 10° S
Cosmos 1340 Rocket 3.2 19:15:11 42° ENE 19:15:11 42° ENE 19:18:30 10° NNE
Cosmos 2279 Rocket 4.4 19:12:59 28° SE 19:15:37 41° E 19:21:24 10° NNE
Cosmos 1733 3.0 19:13:48 20° S 19:16:21 74° E 19:20:10 10° NNE
MOS 1 4.2 19:13:05 16° SSE 19:17:43 88° ENE 19:23:28 10° NNW
GRACE-FO 1 4.4 19:14:44 10° N 19:18:28 73° E 19:19:03 58° SSE
GRACE-FO 2 4.4 19:15:06 10° N 19:18:50 73° E 19:19:25 58° SSE
Lacrosse 5 rocket 2.8 19:15:13 10° NW 19:19:10 31° NNE 19:20:43 25° NE
Cosmos 2082 Rocket 2.9 19:14:48 10° NNW 19:20:00 37° NE 19:21:17 33° E
DMSP B5D2-2 4.0 19:17:30 10° NNE 19:22:49 69° ESE 19:28:04 10° S
BREEZE-M DEB (TANK) 4.3 19:19:50 10° W 19:23:12 35° SSW 19:27:36 21° SSE
BREEZE-M R/B 3.4 19:14:43 10° WSW 19:23:48 78° SSE 19:24:25 58° E
OBJECT-B 1.4 19:28:48 49° N 19:28:48 49° N 19:31:18 10° N
Cosmos 1805 3.8 19:24:27 10° SSW 19:28:18 58° WNW 19:32:11 10° N
Cosmos 2142 Rocket 4.5 19:24:37 18° SSE 19:29:14 58° E 19:35:20 10° NNE
Ariane Rocket 3.4 19:28:06 15° S 19:32:13 61° WSW 19:37:16 10° NNW
H-2A R/B 3.9 19:29:39 10° SSW 19:33:57 28° W 19:38:22 10° NW
Cosmos 1269 Rocket 4.4 19:31:31 10° NNW 19:36:46 62° WSW 19:39:33 27° S
Terra 4.0 19:42:51 12° NE 19:42:51 12° NE 19:43:55 10° NNE
Cosmos 1626 2.6 19:38:01 10° NNW 19:41:41 57° W 19:42:02 54° WSW
Okean 1-7 Rocket 3.7 19:37:30 10° N 19:41:50 62° ENE 19:41:50 62° ENE
MetOp-A 4.5 19:40:20 22° S 19:43:45 63° WSW 19:49:05 10° NNW
USA 186 3.9 19:42:34 19° SW 19:43:57 25° W 19:46:45 10° NW
Cosmos 1455 Rocket 4.2 19:47:18 31° NNE 19:47:18 31° NNE 19:49:45 10° NNE
COSMOS 2406 3.3 19:40:25 10° NNW 19:46:06 76° WSW 19:47:55 44° S
Cosmos 1844 Rocket 4.1 19:42:14 10° WSW 19:47:22 37° NW 19:52:34 10° NNE
SPOT 1/Viking Rocket 4.5 19:48:44 33° NE 19:48:44 33° NE 19:52:41 10° N
ISS -2.4 19:45:15 10° WNW 19:47:46 38° NW 19:47:46 38° NW
Cosmos 2278 Rocket 2.1 19:45:36 10° SSW 19:51:32 61° E 19:56:45 10° NNE
Lacrosse 4 Rocket 2.0 19:49:42 10° NNW 19:52:52 46° N 19:52:52 46° N
Meteor 1-24 Rocket 4.3 19:52:59 10° NNW 19:58:26 55° W 20:01:37 25° SSW
Cosmos 909 Rocket 4.0 19:52:23 10° NW 19:58:56 66° NE 19:59:55 58° E
Cosmos 2266 Rocket 4.1 19:54:48 10° N 20:00:34 53° ENE 20:00:34 53° ENE
SL-14 R/B 4.4 19:57:51 10° NNW 20:01:35 41° W 20:01:55 40° WSW
NOSS 3-4 (A) 3.5 19:56:35 10° SW 20:02:31 73° NW 20:08:57 10° NE
NOSS 3-4 (C) 3.5 19:56:41 10° SW 20:02:37 74° NW 20:09:03 10° NE
Meteor 2-19 Rocket 4.3 19:56:30 10° N 20:02:39 85° E 20:03:47 62° SSE
Resurs 01 Rocket 1.8 20:03:26 69° NNW 20:03:26 69° NNW 20:07:23 10° NNW
Cosmos 1833 Rocket 2.8 20:05:34 10° NNW 20:11:11 65° WSW 20:11:54 59° SSW
Cosmos 2251 Rocket 3.5 20:08:41 10° NNW 20:13:44 77° N 20:13:44 77° N
CENTAUR R/B 4.5 20:08:48 10° NW 20:15:53 33° WSW 20:21:59 15° SSW
ERS-1 Rocket 4.3 20:17:40 29° NNE 20:17:40 29° NNE 20:20:39 10° N
ARIANE 5 R/B 3.8 20:20:05 38° N 20:20:05 38° N 20:22:47 10° NNW
SPOT 3 Rocket 4.2 20:20:51 45° SW 20:21:38 49° W 20:26:38 10° NNW
ATLAS 2AS CENTAUR R/B 3.3 20:17:29 10° SW 20:25:25 68° NW 20:33:15 10° NE
ATLAS 3B R/B 3.0 20:22:00 10° NW 20:28:44 59° WSW 20:29:50 53° SSW
SPOT 5 4.2 20:33:48 34° NNE 20:33:48 34° NNE 20:37:09 10° N
Meteor 1-21 Rocket 4.4 20:28:02 10° NNW 20:33:16 73° NNW 20:33:16 73° NNW
Cosmos 1655 Rocket 4.1 20:31:06 10° NNW 20:37:21 69° W 20:37:50 66° SW
Lacrosse 5 rocket 3.6 20:54:23 10° NW 20:56:20 26° NW 20:56:20 26° NW
Cosmos 2082 Rocket 3.3 20:58:53 10° NW 21:03:08 39° W 21:03:08 39° W
Terra 4.0 21:21:45 22° NNW 21:21:45 22° NNW 21:23:25 10° NNW
Cosmos 2278 Rocket 4.0 21:33:00 20° W 21:35:41 28° NW 21:40:32 10° NNE
CZ-4C R/B 4.4 22:45:17 23° NNE 22:45:17 23° NNE 22:48:17 10° NE
SL-16 R/B 4.3 23:50:37 26° NNE 23:50:37 26° NNE 23:54:09 10° N
